TimeMDT,TemperatureF,Dew PointF,Humidity,Sea Level PressureIn,VisibilityMPH,Wind Direction,Wind SpeedMPH,Gust SpeedMPH,PrecipitationIn,Events,Conditions,WindDirDegrees,DateUTC
12:18 AM,62.6,41.0,45,30.16,10.0,Calm,Calm,-,N/A,,Clear,0,2013-06-17 06:18:00
12:38 AM,60.8,41.0,48,30.16,10.0,SSW,5.8,-,N/A,,Clear,210,2013-06-17 06:38:00
12:58 AM,60.8,41.0,48,30.16,10.0,SSW,4.6,-,N/A,,Clear,200,2013-06-17 06:58:00
1:18 AM,57.2,41.0,55,30.17,10.0,SW,5.8,-,N/A,,Clear,220,2013-06-17 07:18:00
1:38 AM,55.4,39.2,54,30.17,10.0,SSW,5.8,-,N/A,,Clear,200,2013-06-17 07:38:00
1:58 AM,55.4,41.0,58,30.16,10.0,SSW,5.8,-,N/A,,Clear,200,2013-06-17 07:58:00
2:18 AM,55.4,41.0,58,30.16,10.0,West,5.8,-,N/A,,Clear,260,2013-06-17 08:18:00
2:38 AM,60.8,41.0,48,30.15,10.0,SSW,4.6,-,N/A,,Clear,210,2013-06-17 08:38:00
2:58 AM,53.6,41.0,62,30.15,10.0,South,5.8,-,N/A,,Clear,180,2013-06-17 08:58:00
3:18 AM,55.4,39.2,54,30.15,10.0,SSW,6.9,-,N/A,,Clear,200,2013-06-17 09:18:00
3:38 AM,55.4,41.0,58,30.16,10.0,WSW,4.6,-,N/A,,Clear,240,2013-06-17 09:38:00
3:58 AM,53.6,41.0,62,30.16,10.0,NW,6.9,-,N/A,,Clear,320,2013-06-17 09:58:00
4:18 AM,51.8,41.0,67,30.16,10.0,West,8.1,-,N/A,,Clear,260,2013-06-17 10:18:00
4:38 AM,53.6,41.0,62,30.16,10.0,WSW,9.2,-,N/A,,Clear,250,2013-06-17 10:38:00
4:58 AM,55.4,42.8,63,30.16,10.0,WSW,10.4,-,N/A,,Clear,240,2013-06-17 10:58:00
5:18 AM,55.4,42.8,63,30.17,10.0,SW,10.4,-,N/A,,Clear,230,2013-06-17 11:18:00
5:37 AM,55.4,41.0,58,30.18,10.0,SW,10.4,-,N/A,,Clear,220,2013-06-17 11:37:00
5:58 AM,57.2,41.0,55,30.19,10.0,SW,4.6,-,N/A,,Clear,220,2013-06-17 11:58:00
6:18 AM,55.4,41.0,58,30.20,10.0,Calm,Calm,-,N/A,,Clear,0,2013-06-17 12:18:00
6:38 AM,59.0,41.0,51,30.20,10.0,WSW,4.6,-,N/A,,Clear,240,2013-06-17 12:38:00
6:53 AM,60.8,41.0,48,30.19,10.0,SW,5.8,-,N/A,,Clear,220,2013-06-17 12:53:00
7:48 AM,64.4,41.0,42,30.19,50.0,SW,6.9,-,N/A,,Mostly Cloudy,230,2013-06-17 13:48:00
8:49 AM,66.2,41.0,40,30.20,50.0,NE,9.2,-,N/A,,Mostly Cloudy,50,2013-06-17 14:49:00
9:49 AM,69.8,46.4,43,30.23,50.0,North,8.1,-,N/A,,Scattered Clouds,10,2013-06-17 15:49:00
10:55 AM,73.4,48.2,41,30.22,50.0,North,6.9,-,N/A,,Scattered Clouds,10,2013-06-17 16:55:00
11:52 AM,77.0,46.4,34,30.21,50.0,NNE,3.5,-,N/A,,Scattered Clouds,20,2013-06-17 17:52:00
12:50 PM,80.6,44.6,28,30.20,40.0,WNW,3.5,-,N/A,Thunderstorm,Mostly Cloudy,300,2013-06-17 18:50:00
1:50 PM,82.4,42.8,25,30.16,40.0,WSW,11.5,-,N/A,,Mostly Cloudy,240,2013-06-17 19:50:00
9:19 PM,69.8,44.6,40,30.14,10.0,ESE,6.9,-,N/A,,Clear,120,2013-06-18 03:19:00
9:38 PM,69.8,44.6,40,30.15,10.0,SE,13.8,-,N/A,,Clear,130,2013-06-18 03:38:00
9:57 PM,69.8,41.0,35,30.15,10.0,SE,13.8,-,N/A,,Clear,140,2013-06-18 03:57:00
10:18 PM,69.8,42.8,38,30.16,10.0,SSE,11.5,17.3,N/A,,Clear,160,2013-06-18 04:18:00
10:38 PM,68.0,46.4,46,30.16,10.0,SSE,10.4,-,N/A,,Clear,160,2013-06-18 04:38:00
10:58 PM,66.2,46.4,49,30.16,10.0,South,8.1,-,N/A,,Clear,170,2013-06-18 04:58:00
11:18 PM,64.4,44.6,49,30.16,10.0,SSE,8.1,-,N/A,,Clear,150,2013-06-18 05:18:00
11:38 PM,62.6,46.4,55,30.17,10.0,SSE,6.9,-,N/A,,Clear,150,2013-06-18 05:38:00
11:58 PM,60.8,46.4,59,30.17,10.0,South,4.6,-,N/A,,Clear,180,2013-06-18 05:58:00